Regional Weather Roundup
Issued by NWS

Home | Current Version | Previous Version | Graphics & Text | Print | Product List | Glossary On
Versions: 1 2 3 4 5 6 7 8 9 10 11 12 13 14 15 16 17 18 19 20 21 22 23 24 25 26 27 28 29 30 31 32 33 34 35 36 37 38 39 40 41 42 43 44 45 46 47 48 49 50
000
ASUS43 KDMX 252008
RWRIA

WEATHER ROUNDUP FOR IOWA
NATIONAL WEATHER SERVICE DES MOINES IA
300 PM CDT MON JUL 25 2016

NOTE: "FAIR" INDICATES FEW OR NO CLOUDS BELOW 12,000 FEET WITH NO
SIGNIFICANT WEATHER AND/OR OBSTRUCTIONS TO VISIBILITY.

* - THESE STATIONS ARE NOT NWS STATIONS...THUS NOT UNDER NWS
QUALITY CONTROL.  THEY ALSO DO NOT REPORT WEATHER SUCH
AS PRECIPITATION OR FOG.

IAZ001>003-012>014-020>022-031>034-043>046-252100-
   NORTHWEST IOWA

CITY           SKY/WX    TMP DP  RH WIND       PRES   REMARKS
CARROLL *      SUNNY     84  64  51 N5        30.10F HX  86
CHEROKEE *     SUNNY     85  62  44 SW3       30.10F HX  85
DENISON *      SUNNY     84  61  45 CALM      30.09F HX  84
LE MARS *      SUNNY     84  64  51 SW7       30.11F HX  86
SHELDON *      SUNNY     82  63  51 CALM      30.10F HX  83
SIOUX CITY     SUNNY     87  63  44 SW3       30.09F HX  88
SPENCER        SUNNY     85  60  42 CALM      30.10F HX  85
STORM LAKE *     N/A     82  63  51 SE3       30.11F HX  83
$$

IAZ055>058-069>071-079>083-090>094-252100-
   SOUTHWEST IOWA

CITY           SKY/WX    TMP DP  RH WIND       PRES   REMARKS
ATLANTIC *     SUNNY     84  64  51 N6        30.09F HX  86
CLARINDA *       N/A     84  72  65 MISG      30.09F HX  89
COUNCIL BLFS * SUNNY     84  64  51 VRB3      30.10F HX  86
CRESTON *      SUNNY     84  66  54 NE8       30.10F HX  86
HARLAN  *      SUNNY     84  64  51 CALM      30.13F HX  86
LAMONI         SUNNY     84  68  58 NE10      30.07F HX  87
RED OAK *      SUNNY     84  70  61 VRB5      30.09F HX  88
SHENANDOAH *   SUNNY     82  70  65 N5        30.09F HX  86
$$

IAZ047>049-059>061-072>074-084-252100-
   CENTRAL IOWA

CITY           SKY/WX    TMP DP  RH WIND       PRES   REMARKS
AMES           SUNNY     86  65  49 N10       30.08F HX  88
ANKENY *         N/A    N/A N/A N/A MISG        N/A
BOONE *        SUNNY     84  63  48 NE8       30.08F HX  85
CHARITON *       N/A    N/A N/A N/A MISG        N/A
DES MOINES     MOSUNNY   89  59  36 N13       30.07F HX  88
GRINNELL*      SUNNY     83  64  52 NW9       30.07F HX  84
KNOXVILLE *    SUNNY     84  61  45 N12G17    30.06S HX  84
MARSHALLTOWN   SUNNY     86  64  47 N13       30.07F HX  87
NEWTON *       SUNNY     84  64  51 N13       30.06F HX  86
PELLA *        SUNNY     85  66  52 N7        30.07F HX  87
PERRY *          N/A     85  67  55 N7        30.09F HX  87
$$

IAZ004>006-015-016-023>025-035-036-252100-
   NORTH CENTRAL IOWA

CITY           SKY/WX    TMP DP  RH WIND       PRES   REMARKS
ALGONA *       SUNNY     84  61  45 NW8       30.10F HX  84
ESTHERVILLE    SUNNY     84  65  52 NE3       30.09F HX  86
FORT DODGE *   SUNNY     84  63  48 NE3       30.10F HX  85
MASON CITY     SUNNY     83  62  49 NW14      30.09F HX  84
FOREST CITY *    N/A     82  55  39 NW10      30.09F HX  82
IOWA FALLS *     N/A     85  62  46 N10       30.09F HX  85
$$

IAZ007>011-017>019-026>030-037>042-050>054-066-252100-
   NORTHEAST IOWA

CITY           SKY/WX    TMP DP  RH WIND       PRES   REMARKS
CEDAR RAPIDS   SUNNY     84  67  56 N13       30.04F HX  86
CHARLES CITY * SUNNY     82  63  51 NW12      30.08S HX  83
CLINTON *      PTSUNNY   84  68  58 N7        30.04F HX  87
DECORAH *      MOSUNNY   81  63  54 N10       30.05F HX  82
DUBUQUE        MOSUNNY   82  62  50 N10       30.05F HX  83
MONTICELLO *   MOSUNNY   82  68  61 NW9       30.04F HX  85
OELWEIN *      SUNNY     81  64  57 NW8G16    30.08S HX  82
WATERLOO       SUNNY     83  62  49 N9        30.05F HX  84
$$

IAZ064-065-067-068-078-252100-
   EAST CENTRAL IOWA

CITY           SKY/WX    TMP DP  RH WIND       PRES   REMARKS
DAVENPORT      MOSUNNY   83  69  62 VRB5      30.04F HX  86
IOWA CITY      SUNNY     86  63  45 N10       30.05F HX  87
MT. PLEASANT * CLOUDY    83  68  59 N5        30.04F HX  87
MUSCATINE *    MOSUNNY   84  66  54 N9        30.04S HX  86
QUAD CITIES    CLOUDY    87  66  49 NW10      30.02F HX  89
$$

IAZ062-063-075>077-085>089-095>099-252100-
   SOUTHEAST IOWA

CITY           SKY/WX    TMP DP  RH WIND       PRES   REMARKS
BURLINGTON     PTSUNNY   81  70  69 N7        30.03F HX  84
FAIRFIELD *    MOSUNNY   82  68  61 N9        30.05F HX  85
KEOKUK *       CLOUDY    84  68  58 VRB6      30.02F HX  87
OSKALOOSA *      N/A     82  68  61 N8        30.06F HX  85
CENTERVILLE *    N/A     84  68  58 N6        30.08S HX  87
OTTUMWA        MOSUNNY   84  65  52 N13       30.04F HX  86
WASHINGTON *   MOSUNNY   84  66  54 N8        30.06S HX  86
$$

ABBREVIATIONS USED IN REMARKS
   TC - TEMPERATURES IN CELSIUS
  WCI - WIND CHILL INDEX
   HX - HEAT INDEX
  VSB - VISIBILITY
$$





USA.gov is the U.S. government's official web portal to all federal, state and local government web resources and services.